Regional Weather Roundup
Issued by NWS Goodland, KS

Home | Current Version | Previous Version | Text Only | Print | Product List | Glossary Off
Versions: 1 2 3 4 5 6 7 8 9 10 11 12 13 14 15 16 17 18 19 20 21 22 23 24 25 26 27 28 29 30 31 32 33 34 35 36 37 38 39 40 41 42 43 44 45 46 47 48 49 50

000
ASUS43 KGLD 131259
RWRGLD

GOODLAND FORECAST AREA HOURLY WEATHER ROUNDUP
NATIONAL WEATHER SERVICE GOODLAND KS
600 AM MST SAT FEB 13 2016

...OFFICIAL OBSERVATIONS...

CITY           SKY/WX    TMP DP  RH WIND       PRES   REMARKS
GOODLAND KS    FOG       25  24  96 S22       30.24S VSB 1   WCI  10
HILL CITY KS   CLOUDY    21  16  81 SE10      30.41F WCI  10
IMPERIAL NEB   CLOUDY    27  25  92 S21       30.23F WCI  13
MCCOOK NEB     CLOUDY    22  20  92 SE14      30.34S WCI   9
AKRON CO       CLOUDY    28  28 100 S12       30.10F WCI  18
BURLINGTON CO  FOG       26  23  88 S17       30.19F VSB 1/2 WCI  13
LIMON CO       FOG       26  26 100 S9        30.12F VSB 1
$$

...UNOFFICIAL OBSERVATIONS...

CITY           SKY/WX    TMP DP  RH WIND       PRES   REMARKS
COLBY KS       FOG       25  25 100 SE16      30.30F VSB 3/4 WCI  12
GOVE KS          N/A     22  32 100 MISG        N/A
LENORA KS        N/A     19  32 100 MISG        N/A
NORTON KS      CLOUDY    19  14  79 SE12      30.38  WCI   7
SHARON SPRINGS   N/A     25  24  93 SE12G18     N/A  WCI  14
KIT CARSON CO    N/A     25  23  91 MISG        N/A
YUMA CO          N/A     28  27  94 S12G20      N/A  WCI  18
$$



USA.gov is the U.S. government's official web portal to all federal, state and local government web resources and services.